Flag for Greece Weather past 2 weeks in Kalamaria, Greece

Now
43 °F

Light rain. Overcast.


Feels Like: 35 °F
Forecast: 38 / 45 °F
Wind: 17 mph from Northwest

Location: Thessaloniki Airport

Current Time: Mar 6, 2015 at 10:45:07 PM

Latest Report: Mar 6, 2015 at 9:50 PM


Visibility: 3 mi

Pressure: 30.01 "Hg

Humidity: 87%

Dew point: 39 °F

Location of KalamariaLocation

Historic Weather in Kalamaria — Graph

°F

Kalamaria temperature yesterday

Maximum temperature yesterday: 52 °F (at 11:50 AM)
Minimum temperature yesterday: 45 °F (at 12:20 AM)
Average temperature yesterday: 47 °F

Past Weeks' High & Low Weather Summary

 TemperatureHumidityPressure
High61 °F (Mar 3, 12:50 PM)100% (Feb 23, 2:50 AM)30.36 "Hg (Feb 23, 2:50 AM)
Low28 °F (Feb 20, 6:20 AM)23% (Feb 20, 3:20 PM)29.65 "Hg (Feb 24, 3:50 PM)
Average49 °F76%29.97 "Hg
* Reported Feb 19 9:50 PM — Mar 6 9:20 PM, Kalamaria, Weather by CustomWeather, © 2015

Note: Actual official high and low records may vary slightly from our data, if they occured in-between our weather recording intervals... More about our weather records

Advertising

Kalamaria weather history for previous 24 hours

 ConditionsComfort  
Time TempWeatherWind HumidityBarometerVisibility
9:20 PM
Fri, Mar 6
41 °FRain. Overcast.32 mph93%30.01 "Hg3 mi
8:50 PM43 °FRain. Mostly cloudy.32 mph87%29.98 "Hg3 mi
8:20 PM43 °FRain. Mostly cloudy.28 mph87%29.98 "Hg4 mi
7:50 PM43 °FRain. Mostly cloudy.25 mph87%29.98 "Hg4 mi
7:20 PM45 °FLight rain. Mostly cloudy.26 mph87%29.98 "Hg5 mi
6:50 PM45 °FLight rain. Mostly cloudy.23 mph87%29.95 "Hg5 mi
6:20 PM45 °FLight rain. More clouds than sun.20 mph87%29.98 "Hg5 mi
5:50 PM45 °FLight rain. More clouds than sun.23 mph87%29.98 "Hg6 mi
5:20 PM45 °FRain. Mostly cloudy.21 mph87%29.98 "Hg5 mi
4:50 PM46 °FRain. Mostly cloudy.20 mph82%29.98 "Hg4 mi
4:20 PM46 °FRain. More clouds than sun.20 mph82%29.98 "Hg4 mi
3:50 PM46 °FRain. More clouds than sun.20 mph82%29.98 "Hg4 mi
3:20 PM46 °FRain. More clouds than sun.17 mph82%29.98 "Hg4 mi
2:50 PM46 °FLight rain. More clouds than sun.17 mph82%29.98 "Hg5 mi
2:20 PM46 °FRain. More clouds than sun.18 mph82%29.98 "Hg5 mi
1:50 PM46 °FRain. More clouds than sun.21 mph82%30.01 "Hg5 mi
1:20 PM46 °FRain. More clouds than sun.17 mph82%30.01 "Hg6 mi
12:50 PM46 °FLight rain. More clouds than sun.16 mph82%30.01 "HgN/A
12:20 PM46 °FLight rain. Broken clouds.21 mph82%30.01 "HgN/A
11:50 AM48 °FRain. Cloudy.18 mph76%30.04 "Hg5 mi
11:20 AM46 °FRain. Cloudy.14 mph82%30.04 "Hg5 mi
10:50 AM46 °FSleet. More clouds than sun.16 mph82%30.04 "Hg5 mi
10:20 AM48 °FSleet. More clouds than sun.12 mph76%30.01 "Hg6 mi
9:50 AM50 °FLight rain. More clouds than sun.8 mph82%30.01 "Hg6 mi
9:20 AM48 °FSleet. More clouds than sun.7 mph94%29.98 "Hg6 mi
8:50 AM48 °FDrizzle. Mostly cloudy.5 mph87%29.98 "Hg6 mi
8:20 AM48 °FFog.9 mph94%29.95 "Hg4 mi
7:50 AM48 °FFog.7 mph94%29.95 "Hg3 mi
7:20 AM46 °FFog.13 mph93%29.95 "Hg3 mi
6:50 AM46 °FMostly cloudy.9 mph93%29.92 "Hg5 mi
6:20 AM46 °FLight rain. Passing clouds.7 mph93%29.89 "Hg6 mi
5:50 AM45 °FPassing clouds.8 mph93%29.89 "Hg5 mi
5:20 AM46 °FRain. Mostly cloudy.3 mph93%29.92 "Hg4 mi
4:50 AM45 °FSleet. Mostly cloudy.3 mph93%29.89 "Hg5 mi
4:20 AM46 °FRain. Mostly cloudy.5 mph93%29.89 "Hg5 mi
3:50 AM45 °FRain. Mostly cloudy.17 mph93%29.89 "Hg5 mi
3:20 AM45 °FLight rain. Mostly cloudy.15 mph93%29.89 "Hg6 mi
2:50 AM45 °FLight rain. Mostly cloudy.13 mph93%29.89 "Hg6 mi
2:20 AM45 °FLight rain. Mostly cloudy.9 mph93%29.89 "Hg5 mi
1:50 AM46 °FSleet. Mostly cloudy.9 mph87%29.89 "Hg4 mi
1:20 AM46 °FSleet. Mostly cloudy.5 mph87%29.89 "Hg4 mi
12:50 AM46 °FLight rain. Mostly cloudy.8 mph93%29.92 "Hg4 mi
12:20 AM46 °FRain. Mostly cloudy.9 mph93%29.92 "Hg4 mi
11:50 PM
Thu, Mar 5
46 °FRain. Mostly cloudy.7 mph93%29.92 "Hg5 mi
11:20 PM46 °FRain. Mostly cloudy.6 mph93%29.95 "Hg5 mi
10:20 PM46 °FDrizzle. Mostly cloudy.5 mph93%29.95 "Hg5 mi
Weather by CustomWeather, © 2015

See weather overviewHow to use our weather pages